Time,TemperatureF,DewpointF,PressureIn,WindDirection,WindDirectionDegrees,WindSpeedMPH,WindSpeedGustMPH,Humidity,HourlyPrecipIn,Conditions,Clouds,dailyrainin,SolarRadiationWatts/m^2,SoftwareType,DateUTC
2013-07-02 00:00:00,77.5,34.4,30.22,NNE,23,0.0,0.0,21,0.00,,,0.00,1,WeatherHawk,2013-07-02 05:00:00,
2013-07-02 00:05:00,77.3,34.3,30.21,NNE,22,0.0,0.0,21,0.00,,,0.00,1,WeatherHawk,2013-07-02 05:05:00,
2013-07-02 00:10:00,76.9,32.8,30.22,NW,322,0.0,0.0,20,0.00,,,0.00,0,WeatherHawk,2013-07-02 05:10:00,
2013-07-02 00:15:00,77.8,33.5,30.21,North,3,3.0,0.0,20,0.00,,,0.00,0,WeatherHawk,2013-07-02 05:15:00,
2013-07-02 00:20:00,77.5,33.2,30.22,North,351,3.0,0.0,20,0.00,,,0.00,1,WeatherHawk,2013-07-02 05:20:00,
2013-07-02 00:26:00,77.5,33.2,30.22,NNW,330,3.0,0.0,20,0.00,,,0.00,1,WeatherHawk,2013-07-02 05:26:00,
2013-07-02 00:31:00,77.6,32.1,30.22,NNW,331,4.0,0.0,19,0.00,,,0.00,0,WeatherHawk,2013-07-02 05:31:00,
2013-07-02 00:36:00,77.0,31.6,30.22,NW,319,0.0,0.0,19,0.00,,,0.00,0,WeatherHawk,2013-07-02 05:36:00,
2013-07-02 00:41:00,76.9,31.5,30.21,NNW,338,1.0,0.0,19,0.00,,,0.00,1,WeatherHawk,2013-07-02 05:41:00,
2013-07-02 00:46:00,76.4,32.3,30.22,NW,320,1.0,0.0,20,0.00,,,0.00,0,WeatherHawk,2013-07-02 05:46:00,
2013-07-02 00:52:00,77.1,31.7,30.22,NNW,332,4.0,0.0,19,0.00,,,0.00,1,WeatherHawk,2013-07-02 05:52:00,
2013-07-02 00:57:00,77.2,31.7,30.22,NNW,347,3.0,0.0,19,0.00,,,0.00,1,WeatherHawk,2013-07-02 05:57:00,
2013-07-02 01:02:00,77.0,31.5,30.22,NW,317,1.0,0.0,19,0.00,,,0.00,0,WeatherHawk,2013-07-02 06:02:00,
2013-07-02 01:07:00,76.2,30.9,30.22,North,9,0.0,0.0,19,0.00,,,0.00,1,WeatherHawk,2013-07-02 06:07:00,
2013-07-02 01:12:00,76.9,30.1,30.21,NNE,16,1.0,0.0,18,0.00,,,0.00,1,WeatherHawk,2013-07-02 06:12:00,
2013-07-02 01:17:00,76.3,29.7,30.22,NW,324,1.0,0.0,18,0.00,,,0.00,1,WeatherHawk,2013-07-02 06:17:00,
2013-07-02 01:22:00,76.2,29.6,30.22,NNE,13,0.0,0.0,18,0.00,,,0.00,0,WeatherHawk,2013-07-02 06:22:00,
2013-07-02 01:27:00,76.3,28.2,30.21,NNW,340,0.0,0.0,17,0.00,,,0.00,1,WeatherHawk,2013-07-02 06:27:00,
2013-07-02 01:32:00,76.3,29.7,30.21,North,6,0.0,0.0,18,0.00,,,0.00,0,WeatherHawk,2013-07-02 06:32:00,
2013-07-02 01:37:00,76.1,28.1,30.22,NNE,15,2.0,0.0,17,0.00,,,0.00,0,WeatherHawk,2013-07-02 06:37:00,
2013-07-02 01:42:00,76.3,29.7,30.21,North,11,3.0,0.0,18,0.00,,,0.00,0,WeatherHawk,2013-07-02 06:42:00,
2013-07-02 01:48:00,75.8,29.3,30.21,NNW,334,0.0,0.0,18,0.00,,,0.00,0,WeatherHawk,2013-07-02 06:48:00,
2013-07-02 01:53:00,75.4,28.9,30.21,NW,312,1.0,0.0,18,0.00,,,0.00,0,WeatherHawk,2013-07-02 06:53:00,
2013-07-02 01:58:00,76.1,29.5,30.21,NNW,328,4.0,0.0,18,0.00,,,0.00,0,WeatherHawk,2013-07-02 06:58:00,
2013-07-02 02:03:00,74.9,29.9,30.21,NNW,328,0.0,0.0,19,0.00,,,0.00,1,WeatherHawk,2013-07-02 07:03:00,
2013-07-02 02:08:00,75.0,31.2,30.21,NW,317,0.0,0.0,20,0.00,,,0.00,0,WeatherHawk,2013-07-02 07:08:00,
2013-07-02 02:13:00,74.4,30.7,30.21,NNE,19,0.0,0.0,20,0.00,,,0.00,0,WeatherHawk,2013-07-02 07:13:00,
2013-07-02 02:18:00,74.5,32.0,30.21,NW,317,0.0,0.0,21,0.00,,,0.00,0,WeatherHawk,2013-07-02 07:18:00,
2013-07-02 02:23:00,72.8,31.8,30.21,WNW,293,0.0,0.0,22,0.00,,,0.00,0,WeatherHawk,2013-07-02 07:23:00,
2013-07-02 02:28:00,71.7,34.0,30.22,WNW,292,0.0,0.0,25,0.00,,,0.00,0,WeatherHawk,2013-07-02 07:28:00,
2013-07-02 02:33:00,72.5,36.6,30.22,WSW,252,0.0,0.0,27,0.00,,,0.00,0,WeatherHawk,2013-07-02 07:33:00,
2013-07-02 02:38:00,72.0,38.0,30.22,WSW,241,0.0,0.0,29,0.00,,,0.00,1,WeatherHawk,2013-07-02 07:38:00,
2013-07-02 02:44:00,72.2,40.7,30.21,WSW,241,0.0,0.0,32,0.00,,,0.00,0,WeatherHawk,2013-07-02 07:44:00,
2013-07-02 02:49:00,72.2,42.3,30.22,SW,236,2.0,0.0,34,0.00,,,0.00,1,WeatherHawk,2013-07-02 07:49:00,
2013-07-02 02:54:00,70.8,41.1,30.22,SSW,194,1.0,0.0,34,0.00,,,0.00,1,WeatherHawk,2013-07-02 07:54:00,
2013-07-02 02:59:00,70.7,41.7,30.22,SW,235,0.0,0.0,35,0.00,,,0.00,0,WeatherHawk,2013-07-02 07:59:00,
2013-07-02 03:05:00,70.5,42.3,30.22,SW,235,0.0,0.0,36,0.00,,,0.00,1,WeatherHawk,2013-07-02 08:05:00,
2013-07-02 03:10:00,70.3,42.1,30.22,West,262,0.0,0.0,36,0.00,,,0.00,0,WeatherHawk,2013-07-02 08:10:00,
2013-07-02 03:15:00,70.3,42.1,30.22,NE,35,0.0,0.0,36,0.00,,,0.00,1,WeatherHawk,2013-07-02 08:15:00,
2013-07-02 03:20:00,70.3,42.1,30.22,WSW,247,0.0,0.0,36,0.00,,,0.00,0,WeatherHawk,2013-07-02 08:20:00,
2013-07-02 03:25:00,70.5,42.3,30.22,WSW,243,0.0,-999.0,36,0.00,,,0.00,1,WeatherHawk,2013-07-02 08:25:00,
2013-07-02 03:30:00,70.2,41.9,30.22,WSW,250,0.0,0.0,36,0.00,,,0.00,0,WeatherHawk,2013-07-02 08:30:00,
2013-07-02 03:35:00,69.9,41.7,30.22,West,266,1.0,-999.0,36,0.00,,,0.00,1,WeatherHawk,2013-07-02 08:35:00,
2013-07-02 03:40:00,69.8,41.6,30.22,WNW,293,0.0,0.0,36,0.00,,,0.00,0,WeatherHawk,2013-07-02 08:40:00,
2013-07-02 03:45:00,70.1,41.9,30.22,West,273,2.0,0.0,36,0.00,,,0.00,1,WeatherHawk,2013-07-02 08:45:00,
2013-07-02 03:50:00,69.8,40.9,30.22,NW,316,1.0,-999.0,35,0.00,,,0.00,0,WeatherHawk,2013-07-02 08:50:00,
2013-07-02 03:55:00,70.0,40.3,30.22,SSW,201,0.0,0.0,34,0.00,,,0.00,0,WeatherHawk,2013-07-02 08:55:00,
2013-07-02 04:00:00,69.5,39.9,30.22,West,272,0.0,0.0,34,0.00,,,0.00,0,WeatherHawk,2013-07-02 09:00:00,
2013-07-02 04:05:00,69.4,40.5,30.22,South,191,1.0,0.0,35,0.00,,,0.00,1,WeatherHawk,2013-07-02 09:05:00,
2013-07-02 04:10:00,69.2,41.1,30.22,WSW,239,0.0,0.0,36,0.00,,,0.00,0,WeatherHawk,2013-07-02 09:10:00,
2013-07-02 04:15:00,68.1,40.1,30.23,SSW,211,0.0,0.0,36,0.00,,,0.00,0,WeatherHawk,2013-07-02 09:15:00,
2013-07-02 04:20:00,68.4,41.8,30.22,SSW,211,0.0,0.0,38,0.00,,,0.00,0,WeatherHawk,2013-07-02 09:20:00,
2013-07-02 04:25:00,68.3,41.7,30.23,SSW,211,0.0,-999.0,38,0.00,,,0.00,0,WeatherHawk,2013-07-02 09:25:00,
2013-07-02 04:30:00,67.4,40.9,30.23,SSW,211,0.0,0.0,38,0.00,,,0.00,0,WeatherHawk,2013-07-02 09:30:00,
2013-07-02 04:35:00,68.3,42.4,30.23,SSW,211,0.0,0.0,39,0.00,,,0.00,0,WeatherHawk,2013-07-02 09:35:00,
2013-07-02 04:40:00,68.1,42.2,30.23,SW,217,0.0,-999.0,39,0.00,,,0.00,0,WeatherHawk,2013-07-02 09:40:00,
2013-07-02 04:45:00,68.3,41.7,30.23,WSW,240,0.0,0.0,38,0.00,,,0.00,0,WeatherHawk,2013-07-02 09:45:00,
2013-07-02 04:50:00,67.9,41.3,30.23,West,275,0.0,0.0,38,0.00,,,0.00,0,WeatherHawk,2013-07-02 09:50:00,
2013-07-02 04:55:00,68.3,42.3,30.23,WSW,255,0.0,0.0,39,0.00,,,0.00,1,WeatherHawk,2013-07-02 09:55:00,
2013-07-02 05:00:00,68.0,42.1,30.23,WSW,251,0.0,-999.0,39,0.00,,,0.00,0,WeatherHawk,2013-07-02 10:00:00,
2013-07-02 05:05:00,67.6,41.8,30.23,WSW,252,0.0,-999.0,39,0.00,,,0.00,1,WeatherHawk,2013-07-02 10:05:00,
2013-07-02 05:10:00,68.4,42.5,30.23,WSW,251,0.0,-999.0,39,0.00,,,0.00,0,WeatherHawk,2013-07-02 10:10:00,
2013-07-02 05:15:00,68.5,43.2,30.23,WSW,251,0.0,0.0,40,0.00,,,0.00,0,WeatherHawk,2013-07-02 10:15:00,
2013-07-02 05:20:00,67.9,42.0,30.23,WSW,245,0.0,0.0,39,0.00,,,0.00,0,WeatherHawk,2013-07-02 10:20:00,
2013-07-02 05:25:00,67.5,42.3,30.24,WSW,247,0.0,0.0,40,0.00,,,0.00,0,WeatherHawk,2013-07-02 10:25:00,
2013-07-02 05:30:00,67.2,41.4,30.23,WSW,246,0.0,0.0,39,0.00,,,0.00,0,WeatherHawk,2013-07-02 10:30:00,
2013-07-02 05:35:00,67.0,41.2,30.24,WSW,246,0.0,0.0,39,0.00,,,0.00,1,WeatherHawk,2013-07-02 10:35:00,
2013-07-02 05:40:00,66.9,41.8,30.23,WSW,246,0.0,-999.0,40,0.00,,,0.00,0,WeatherHawk,2013-07-02 10:40:00,
2013-07-02 05:45:00,67.5,42.3,30.23,WSW,246,0.0,0.0,40,0.00,,,0.00,1,WeatherHawk,2013-07-02 10:45:00,
2013-07-02 05:50:00,67.4,42.2,30.24,WSW,258,0.0,0.0,40,0.00,,,0.00,0,WeatherHawk,2013-07-02 10:50:00,
2013-07-02 05:55:00,66.9,42.4,30.23,West,260,0.0,0.0,41,0.00,,,0.00,0,WeatherHawk,2013-07-02 10:55:00,
2013-07-02 06:00:00,66.6,42.8,30.24,West,268,0.0,-999.0,42,0.00,,,0.00,0,WeatherHawk,2013-07-02 11:00:00,
2013-07-02 06:05:00,66.5,42.7,30.25,West,277,0.0,0.0,42,0.00,,,0.00,1,WeatherHawk,2013-07-02 11:05:00,
2013-07-02 06:10:00,67.0,43.8,30.25,WSW,239,0.0,0.0,43,0.00,,,0.00,1,WeatherHawk,2013-07-02 11:10:00,
2013-07-02 06:15:00,66.8,44.2,30.24,SW,229,1.0,0.0,44,0.00,,,0.00,3,WeatherHawk,2013-07-02 11:15:00,
2013-07-02 06:20:00,66.5,43.9,30.25,WSW,248,0.0,0.0,44,0.00,,,0.00,5,WeatherHawk,2013-07-02 11:20:00,
2013-07-02 06:25:00,66.7,44.1,30.25,WNW,299,0.0,-999.0,44,0.00,,,0.00,6,WeatherHawk,2013-07-02 11:25:00,
2013-07-02 06:30:00,66.9,43.7,30.25,WNW,291,0.0,0.0,43,0.00,,,0.00,9,WeatherHawk,2013-07-02 11:30:00,
2013-07-02 06:35:00,67.1,43.9,30.24,SSW,208,0.0,-999.0,43,0.00,,,0.00,14,WeatherHawk,2013-07-02 11:35:00,
2013-07-02 06:40:00,66.9,43.0,30.25,WNW,285,0.0,0.0,42,0.00,,,0.00,21,WeatherHawk,2013-07-02 11:40:00,
2013-07-02 06:45:00,67.4,43.5,30.25,SSW,197,0.0,0.0,42,0.00,,,0.00,28,WeatherHawk,2013-07-02 11:45:00,
2013-07-02 06:50:00,67.5,42.9,30.25,WSW,245,2.0,0.0,41,0.00,,,0.00,32,WeatherHawk,2013-07-02 11:50:00,
2013-07-02 06:55:00,67.5,42.3,30.25,WSW,245,2.0,-999.0,40,0.00,,,0.00,33,WeatherHawk,2013-07-02 11:55:00,
2013-07-02 07:00:00,68.4,42.4,30.25,WSW,258,0.0,0.0,39,0.00,,,0.00,54,WeatherHawk,2013-07-02 12:00:00,
2013-07-02 07:05:00,68.5,41.9,30.25,WSW,244,0.0,-999.0,38,0.00,,,0.00,61,WeatherHawk,2013-07-02 12:05:00,
2013-07-02 07:10:00,68.8,42.1,30.25,WSW,245,0.0,0.0,38,0.00,,,0.00,68,WeatherHawk,2013-07-02 12:10:00,
2013-07-02 07:15:00,69.4,41.3,30.26,NW,316,0.0,0.0,36,0.00,,,0.00,89,WeatherHawk,2013-07-02 12:15:00,
2013-07-02 07:20:00,69.5,40.6,30.26,West,275,0.0,0.0,35,0.00,,,0.00,76,WeatherHawk,2013-07-02 12:20:00,
2013-07-02 07:25:00,70.2,40.5,30.25,WNW,302,0.0,0.0,34,0.00,,,0.00,110,WeatherHawk,2013-07-02 12:25:00,
2013-07-02 07:30:00,70.7,40.2,30.25,WNW,300,0.0,0.0,33,0.00,,,0.00,121,WeatherHawk,2013-07-02 12:30:00,
2013-07-02 07:35:00,70.6,40.1,30.25,NNW,327,0.0,0.0,33,0.00,,,0.00,131,WeatherHawk,2013-07-02 12:35:00,
2013-07-02 07:40:00,71.3,39.9,30.26,SW,219,0.0,-999.0,32,0.00,,,0.00,142,WeatherHawk,2013-07-02 12:40:00,
2013-07-02 07:45:00,70.8,37.8,30.26,WNW,285,2.0,-999.0,30,0.00,,,0.00,133,WeatherHawk,2013-07-02 12:45:00,
2013-07-02 07:50:00,72.8,38.7,30.26,NW,311,0.0,0.0,29,0.00,,,0.00,170,WeatherHawk,2013-07-02 12:50:00,
2013-07-02 07:55:00,71.6,34.9,30.25,NW,316,5.0,0.0,26,0.00,,,0.00,183,WeatherHawk,2013-07-02 12:55:00,
2013-07-02 08:00:00,71.4,32.7,30.26,NW,318,5.0,0.0,24,0.00,,,0.00,218,WeatherHawk,2013-07-02 13:00:00,
2013-07-02 08:05:00,71.5,31.7,30.25,NNW,331,6.0,0.0,23,0.00,,,0.00,232,WeatherHawk,2013-07-02 13:05:00,
2013-07-02 08:10:00,72.2,32.3,30.26,NNW,332,3.0,-999.0,23,0.00,,,0.00,249,WeatherHawk,2013-07-02 13:10:00,
2013-07-02 08:15:00,73.0,34.1,30.26,NNW,330,3.0,0.0,24,0.00,,,0.00,264,WeatherHawk,2013-07-02 13:15:00,
2013-07-02 08:20:00,72.4,31.4,30.25,NW,314,5.0,-999.0,22,0.00,,,0.00,282,WeatherHawk,2013-07-02 13:20:00,
2013-07-02 08:25:00,72.8,32.8,30.25,NW,315,3.0,0.0,23,0.00,,,0.00,295,WeatherHawk,2013-07-02 13:25:00,
2013-07-02 08:30:00,73.6,32.4,30.26,NE,38,2.0,0.0,22,0.00,,,0.00,318,WeatherHawk,2013-07-02 13:30:00,
2013-07-02 08:35:00,74.0,32.7,30.26,NE,36,2.0,-999.0,22,0.00,,,0.00,342,WeatherHawk,2013-07-02 13:35:00,
2013-07-02 08:40:00,72.9,30.7,30.27,NNW,339,5.0,0.0,21,0.00,,,0.00,262,WeatherHawk,2013-07-02 13:40:00,
2013-07-02 08:45:00,73.3,31.0,30.26,North,351,5.0,-999.0,21,0.00,,,0.00,306,WeatherHawk,2013-07-02 13:45:00,
2013-07-02 08:50:00,73.3,31.0,30.26,NNW,337,8.0,-999.0,21,0.00,,,0.00,289,WeatherHawk,2013-07-02 13:50:00,
2013-07-02 08:55:00,73.9,31.5,30.26,NW,324,7.0,-999.0,21,0.00,,,0.00,255,WeatherHawk,2013-07-02 13:55:00,
2013-07-02 09:00:00,73.3,31.0,30.25,NW,319,5.0,0.0,21,0.00,,,0.00,191,WeatherHawk,2013-07-02 14:00:00,
2013-07-02 09:05:00,75.9,33.2,30.26,NNW,333,1.0,-999.0,21,0.00,,,0.00,491,WeatherHawk,2013-07-02 14:05:00,
2013-07-02 09:10:00,75.6,29.1,30.25,NW,318,4.0,0.0,18,0.00,,,0.00,202,WeatherHawk,2013-07-02 14:10:00,
2013-07-02 09:15:00,74.4,28.1,30.24,NW,326,4.0,-999.0,18,0.00,,,0.00,204,WeatherHawk,2013-07-02 14:15:00,
2013-07-02 09:20:00,75.3,27.4,30.25,NNE,15,4.0,-999.0,17,0.00,,,0.00,465,WeatherHawk,2013-07-02 14:20:00,
2013-07-02 09:25:00,76.9,27.3,30.24,NW,310,1.0,0.0,16,0.00,,,0.00,541,WeatherHawk,2013-07-02 14:25:00,
2013-07-02 09:30:00,76.5,25.4,30.26,NW,307,2.0,0.0,15,0.00,,,0.00,525,WeatherHawk,2013-07-02 14:30:00,
2013-07-02 09:35:00,76.3,26.8,30.25,West,272,2.0,0.0,16,0.00,,,0.00,522,WeatherHawk,2013-07-02 14:35:00,
2013-07-02 09:40:00,78.2,19.4,30.24,WNW,298,0.0,0.0,11,0.00,,,0.00,547,WeatherHawk,2013-07-02 14:40:00,
2013-07-02 09:45:00,78.0,19.2,30.25,North,349,0.0,-999.0,11,0.00,,,0.00,561,WeatherHawk,2013-07-02 14:45:00,
2013-07-02 09:50:00,79.8,13.3,30.24,SSW,208,0.0,0.0,8,0.00,,,0.00,573,WeatherHawk,2013-07-02 14:50:00,
2013-07-02 09:55:00,78.7,17.6,30.24,North,8,5.0,-999.0,10,0.00,,,0.00,594,WeatherHawk,2013-07-02 14:55:00,
2013-07-02 10:00:00,80.8,11.0,30.24,ENE,70,0.0,-999.0,7,0.00,,,0.00,609,WeatherHawk,2013-07-02 15:00:00,
2013-07-02 10:05:00,86.9,15.4,30.23,West,280,0.0,-999.0,7,0.00,,,0.00,620,WeatherHawk,2013-07-02 15:05:00,
2013-07-02 10:10:00,82.3,15.1,30.22,ENE,73,0.0,0.0,8,0.00,,,0.00,638,WeatherHawk,2013-07-02 15:10:00,
2013-07-02 10:15:00,78.0,5.5,30.22,NNW,328,7.0,0.0,6,0.00,,,0.00,651,WeatherHawk,2013-07-02 15:15:00,
2013-07-02 10:20:00,80.2,13.6,30.24,NE,42,3.0,0.0,8,0.00,,,0.00,664,WeatherHawk,2013-07-02 15:20:00,
2013-07-02 10:25:00,82.7,12.4,30.24,NNE,13,2.0,-999.0,7,0.00,,,0.00,673,WeatherHawk,2013-07-02 15:25:00,
2013-07-02 10:30:00,81.2,11.3,30.24,North,349,0.0,0.0,7,0.00,,,0.00,702,WeatherHawk,2013-07-02 15:30:00,
2013-07-02 10:35:00,83.1,9.2,30.24,NE,51,1.0,-999.0,6,0.00,,,0.00,703,WeatherHawk,2013-07-02 15:35:00,
2013-07-02 10:40:00,81.1,11.2,30.24,NNE,32,5.0,0.0,7,0.00,,,0.00,726,WeatherHawk,2013-07-02 15:40:00,
2013-07-02 10:45:00,82.2,8.6,30.24,NNE,19,4.0,0.0,6,0.00,,,0.00,742,WeatherHawk,2013-07-02 15:45:00,
2013-07-02 10:50:00,82.5,15.3,30.24,NNE,22,1.0,0.0,8,0.00,,,0.00,751,WeatherHawk,2013-07-02 15:50:00,
2013-07-02 10:55:00,81.7,8.2,30.23,NNE,13,7.0,0.0,6,0.00,,,0.00,765,WeatherHawk,2013-07-02 15:55:00,
2013-07-02 11:00:00,81.5,8.1,30.23,NNE,18,8.0,-999.0,6,0.00,,,0.00,774,WeatherHawk,2013-07-02 16:00:00,
2013-07-02 11:05:00,80.1,3.1,30.23,NW,318,8.0,0.0,5,0.00,,,0.00,786,WeatherHawk,2013-07-02 16:05:00,
2013-07-02 11:10:00,82.1,4.5,30.23,NNE,23,5.0,-999.0,5,0.00,,,0.00,803,WeatherHawk,2013-07-02 16:10:00,
2013-07-02 11:15:00,81.4,4.1,30.22,NE,42,8.0,0.0,5,0.00,,,0.00,822,WeatherHawk,2013-07-02 16:15:00,
2013-07-02 11:20:00,83.2,9.3,30.23,NNE,12,3.0,0.0,6,0.00,,,0.00,832,WeatherHawk,2013-07-02 16:20:00,
2013-07-02 11:25:00,84.4,6.2,30.24,NW,307,4.0,-999.0,5,0.00,,,0.00,847,WeatherHawk,2013-07-02 16:25:00,
2013-07-02 11:30:00,82.2,8.6,30.24,NNE,24,9.0,0.0,6,0.00,,,0.00,846,WeatherHawk,2013-07-02 16:30:00,
2013-07-02 11:35:00,83.9,9.8,30.24,North,10,3.0,0.0,6,0.00,,,0.00,853,WeatherHawk,2013-07-02 16:35:00,
2013-07-02 11:40:00,83.4,12.9,30.23,NNW,332,4.0,0.0,7,0.00,,,0.00,872,WeatherHawk,2013-07-02 16:40:00,
2013-07-02 11:45:00,82.8,0.2,30.22,NNW,338,7.0,-999.0,4,0.00,,,0.00,871,WeatherHawk,2013-07-02 16:45:00,
2013-07-02 11:50:00,82.2,8.6,30.23,NNE,19,0.0,0.0,6,0.00,,,0.00,886,WeatherHawk,2013-07-02 16:50:00,
2013-07-02 11:55:00,84.8,10.4,30.24,NNW,336,3.0,-999.0,6,0.00,,,0.00,902,WeatherHawk,2013-07-02 16:55:00,
2013-07-02 12:00:00,82.2,8.6,30.23,North,6,9.0,0.0,6,0.00,,,0.00,902,WeatherHawk,2013-07-02 17:00:00,
2013-07-02 12:05:00,83.6,5.5,30.24,NNE,23,5.0,0.0,5,0.00,,,0.00,915,WeatherHawk,2013-07-02 17:05:00,
2013-07-02 12:10:00,83.8,5.7,30.23,NW,325,8.0,-999.0,5,0.00,,,0.00,922,WeatherHawk,2013-07-02 17:10:00,
2013-07-02 12:15:00,82.5,0.0,30.23,North,10,9.0,0.0,4,0.00,,,0.00,922,WeatherHawk,2013-07-02 17:15:00,
2013-07-02 12:20:00,83.2,0.5,30.23,NE,37,6.0,0.0,4,0.00,,,0.00,936,WeatherHawk,2013-07-02 17:20:00,
2013-07-02 12:25:00,83.4,0.6,30.23,NE,40,1.0,0.0,4,0.00,,,0.00,945,WeatherHawk,2013-07-02 17:25:00,
2013-07-02 12:30:00,84.4,13.6,30.22,NNE,31,8.0,0.0,7,0.00,,,0.00,956,WeatherHawk,2013-07-02 17:30:00,
2013-07-02 12:35:00,82.8,12.4,30.22,NNE,29,10.0,-999.0,7,0.00,,,0.00,967,WeatherHawk,2013-07-02 17:35:00,
2013-07-02 12:40:00,83.5,9.5,30.21,NNW,341,3.0,-999.0,6,0.00,,,0.00,1011,WeatherHawk,2013-07-02 17:40:00,
2013-07-02 12:45:00,86.5,2.8,30.21,NE,48,5.0,0.0,4,0.00,,,0.00,990,WeatherHawk,2013-07-02 17:45:00,
2013-07-02 12:50:00,83.8,5.7,30.22,NE,43,6.0,0.0,5,0.00,,,0.00,994,WeatherHawk,2013-07-02 17:50:00,
2013-07-02 12:55:00,84.0,5.8,30.22,NNE,16,2.0,-999.0,5,0.00,,,0.00,1003,WeatherHawk,2013-07-02 17:55:00,
2013-07-02 13:00:00,83.2,0.5,30.22,NNE,23,10.0,0.0,4,0.00,,,0.00,1019,WeatherHawk,2013-07-02 18:00:00,
2013-07-02 13:05:00,83.1,0.4,30.22,NNE,26,13.0,0.0,4,0.00,,,0.00,1049,WeatherHawk,2013-07-02 18:05:00,
2013-07-02 13:10:00,85.8,2.3,30.22,NNE,14,3.0,0.0,4,0.00,,,0.00,1068,WeatherHawk,2013-07-02 18:10:00,
2013-07-02 13:15:00,85.1,10.7,30.22,NNE,21,7.0,0.0,6,0.00,,,0.00,1054,WeatherHawk,2013-07-02 18:15:00,
2013-07-02 13:20:00,88.6,9.1,30.22,SW,222,4.0,0.0,5,0.00,,,0.00,1038,WeatherHawk,2013-07-02 18:20:00,
2013-07-02 13:25:00,86.4,11.6,30.21,SSW,193,5.0,0.0,6,0.00,,,0.00,1058,WeatherHawk,2013-07-02 18:25:00,
2013-07-02 13:30:00,84.8,-4.5,30.21,NNE,30,6.0,-999.0,3,0.00,,,0.00,1090,WeatherHawk,2013-07-02 18:30:00,
2013-07-02 13:35:00,86.2,11.4,30.20,North,7,5.0,0.0,6,0.00,,,0.00,1065,WeatherHawk,2013-07-02 18:35:00,
2013-07-02 13:40:00,86.3,11.5,30.20,ENE,77,8.0,0.0,6,0.00,,,0.00,1049,WeatherHawk,2013-07-02 18:40:00,
2013-07-02 13:45:00,85.4,10.9,30.21,NNE,24,10.0,0.0,6,0.00,,,0.00,1049,WeatherHawk,2013-07-02 18:45:00,
2013-07-02 13:50:00,88.8,13.3,30.20,NE,36,5.0,0.0,6,0.00,,,0.00,1045,WeatherHawk,2013-07-02 18:50:00,
2013-07-02 13:55:00,85.1,1.8,30.20,NNE,14,10.0,0.0,4,0.00,,,0.00,1030,WeatherHawk,2013-07-02 18:55:00,
2013-07-02 14:00:00,85.1,10.7,30.21,NNW,332,11.0,0.0,6,0.00,,,0.00,915,WeatherHawk,2013-07-02 19:00:00,
2013-07-02 14:05:00,88.6,9.1,30.21,North,6,4.0,0.0,5,0.00,,,0.00,1053,WeatherHawk,2013-07-02 19:05:00,
2013-07-02 14:10:00,85.9,11.2,30.20,North,0,5.0,-999.0,6,0.00,,,0.00,443,WeatherHawk,2013-07-02 19:10:00,
2013-07-02 14:15:00,85.4,10.8,30.20,NNE,17,5.0,0.0,6,0.00,,,0.00,1039,WeatherHawk,2013-07-02 19:15:00,
2013-07-02 14:20:00,85.6,7.0,30.21,East,79,9.0,0.0,5,0.00,,,0.00,1043,WeatherHawk,2013-07-02 19:20:00,
2013-07-02 14:25:00,85.5,6.9,30.19,ENE,65,6.0,0.0,5,0.00,,,0.00,245,WeatherHawk,2013-07-02 19:25:00,
2013-07-02 14:30:00,86.6,7.7,30.20,North,3,7.0,-999.0,5,0.00,,,0.00,1101,WeatherHawk,2013-07-02 19:30:00,
2013-07-02 14:35:00,87.2,12.2,30.20,NW,310,1.0,0.0,6,0.00,,,0.00,1139,WeatherHawk,2013-07-02 19:35:00,
2013-07-02 14:40:00,85.6,2.2,30.20,NNE,22,6.0,0.0,4,0.00,,,0.00,329,WeatherHawk,2013-07-02 19:40:00,
2013-07-02 14:45:00,86.1,7.3,30.20,NW,314,4.0,-999.0,5,0.00,,,0.00,275,WeatherHawk,2013-07-02 19:45:00,
2013-07-02 14:50:00,86.5,7.6,30.20,NNE,14,5.0,-999.0,5,0.00,,,0.00,1081,WeatherHawk,2013-07-02 19:50:00,
2013-07-02 14:55:00,83.8,9.7,30.20,NNE,14,12.0,0.0,6,0.00,,,0.00,273,WeatherHawk,2013-07-02 19:55:00,
2013-07-02 15:00:00,86.4,2.7,30.20,ENE,64,4.0,0.0,4,0.00,,,0.00,690,WeatherHawk,2013-07-02 20:00:00,
2013-07-02 15:05:00,84.5,10.2,30.20,North,0,6.0,-999.0,6,0.00,,,0.00,1077,WeatherHawk,2013-07-02 20:05:00,
2013-07-02 15:10:00,86.7,11.8,30.19,NNE,18,4.0,0.0,6,0.00,,,0.00,238,WeatherHawk,2013-07-02 20:10:00,
2013-07-02 15:15:00,85.6,11.0,30.19,NNW,343,8.0,-999.0,6,0.00,,,0.00,983,WeatherHawk,2013-07-02 20:15:00,
2013-07-02 15:20:00,86.2,-3.6,30.19,WNW,298,6.0,0.0,3,0.00,,,0.00,961,WeatherHawk,2013-07-02 20:20:00,
2013-07-02 15:25:00,88.7,-1.9,30.18,NNE,15,3.0,0.0,3,0.00,,,0.00,981,WeatherHawk,2013-07-02 20:25:00,
2013-07-02 15:30:00,88.4,16.5,30.17,NW,317,2.0,-999.0,7,0.00,,,0.00,272,WeatherHawk,2013-07-02 20:30:00,
2013-07-02 15:35:00,85.2,10.7,30.18,NNE,12,9.0,0.0,6,0.00,,,0.00,213,WeatherHawk,2013-07-02 20:35:00,
2013-07-02 15:40:00,85.8,14.7,30.19,NNE,30,9.0,-999.0,7,0.00,,,0.00,914,WeatherHawk,2013-07-02 20:40:00,
2013-07-02 15:45:00,86.5,-3.3,30.19,NNE,27,8.0,0.0,3,0.00,,,0.00,356,WeatherHawk,2013-07-02 20:45:00,
2013-07-02 15:50:00,86.7,15.3,30.19,NNE,12,9.0,0.0,7,0.00,,,0.00,384,WeatherHawk,2013-07-02 20:50:00,
2013-07-02 15:55:00,86.0,2.4,30.18,NNE,13,6.0,-999.0,4,0.00,,,0.00,891,WeatherHawk,2013-07-02 20:55:00,
2013-07-02 16:00:00,87.1,15.6,30.18,NNE,12,7.0,-999.0,7,0.00,,,0.00,865,WeatherHawk,2013-07-02 21:00:00,
2013-07-02 16:05:00,86.0,-3.7,30.19,NE,46,5.0,0.0,3,0.00,,,0.00,155,WeatherHawk,2013-07-02 21:05:00,
2013-07-02 16:10:00,89.8,5.0,30.17,ENE,57,1.0,-999.0,4,0.00,,,0.00,847,WeatherHawk,2013-07-02 21:10:00,
2013-07-02 16:15:00,88.3,-2.2,30.19,North,4,10.0,-999.0,3,0.00,,,0.00,837,WeatherHawk,2013-07-02 21:15:00,
2013-07-02 16:20:00,86.0,2.4,30.18,NW,313,11.0,-999.0,4,0.00,,,0.00,799,WeatherHawk,2013-07-02 21:20:00,
2013-07-02 16:25:00,85.3,1.9,30.18,NNE,23,11.0,0.0,4,0.00,,,0.00,806,WeatherHawk,2013-07-02 21:25:00,
2013-07-02 16:30:00,87.0,3.1,30.17,North,349,4.0,0.0,4,0.00,,,0.00,802,WeatherHawk,2013-07-02 21:30:00,
2013-07-02 16:35:00,89.1,4.5,30.18,WNW,294,3.0,0.0,4,0.00,,,0.00,232,WeatherHawk,2013-07-02 21:35:00,
2013-07-02 16:40:00,85.7,2.2,30.17,NNW,327,10.0,-999.0,4,0.00,,,0.00,789,WeatherHawk,2013-07-02 21:40:00,
2013-07-02 16:45:00,86.7,2.9,30.18,NW,319,5.0,0.0,4,0.00,,,0.00,771,WeatherHawk,2013-07-02 21:45:00,
2013-07-02 16:50:00,86.8,3.0,30.18,North,7,9.0,0.0,4,0.00,,,0.00,750,WeatherHawk,2013-07-02 21:50:00,
2013-07-02 16:55:00,86.3,2.6,30.17,NE,39,4.0,0.0,4,0.00,,,0.00,675,WeatherHawk,2013-07-02 21:55:00,
2013-07-02 17:00:00,87.1,3.2,30.18,WNW,284,9.0,0.0,4,0.00,,,0.00,727,WeatherHawk,2013-07-02 22:00:00,
2013-07-02 17:05:00,86.8,3.0,30.17,North,0,7.0,0.0,4,0.00,,,0.00,722,WeatherHawk,2013-07-02 22:05:00,
2013-07-02 17:10:00,87.2,3.2,30.16,NW,320,5.0,-999.0,4,0.00,,,0.00,711,WeatherHawk,2013-07-02 22:10:00,
2013-07-02 17:15:00,88.1,3.8,30.16,NE,39,1.0,0.0,4,0.00,,,0.00,686,WeatherHawk,2013-07-02 22:15:00,
2013-07-02 17:20:00,88.0,16.3,30.16,ENE,66,5.0,0.0,7,0.00,,,0.00,681,WeatherHawk,2013-07-02 22:20:00,
2013-07-02 17:25:00,87.5,15.9,30.16,NE,46,3.0,0.0,7,0.00,,,0.00,657,WeatherHawk,2013-07-02 22:25:00,
2013-07-02 17:30:00,86.0,14.8,30.16,NNE,29,7.0,-999.0,7,0.00,,,0.00,617,WeatherHawk,2013-07-02 22:30:00,
2013-07-02 17:35:00,87.4,3.3,30.16,NNE,20,4.0,-999.0,4,0.00,,,0.00,600,WeatherHawk,2013-07-02 22:35:00,
2013-07-02 17:40:00,86.1,2.5,30.16,NNE,16,7.0,-999.0,4,0.00,,,0.00,583,WeatherHawk,2013-07-02 22:40:00,
2013-07-02 17:45:00,87.2,3.2,30.16,North,11,8.0,0.0,4,0.00,,,0.00,572,WeatherHawk,2013-07-02 22:45:00,
2013-07-02 17:50:00,86.9,3.0,30.16,NNE,31,6.0,0.0,4,0.00,,,0.00,551,WeatherHawk,2013-07-02 22:50:00,
2013-07-02 17:51:00,86.7,2.9,30.17,NNE,19,9.0,0.0,4,0.00,,,0.00,544,WeatherHawk,2013-07-02 22:51:00,
2013-07-02 17:56:00,87.3,15.7,30.17,WNW,283,4.0,0.0,7,0.00,,,0.00,511,WeatherHawk,2013-07-02 22:56:00,
2013-07-02 18:01:00,87.2,3.2,30.16,NNW,342,5.0,0.0,4,0.00,,,0.00,499,WeatherHawk,2013-07-02 23:01:00,
2013-07-02 18:07:00,86.6,2.8,30.16,NNE,16,5.0,0.0,4,0.00,,,0.00,452,WeatherHawk,2013-07-02 23:07:00,
2013-07-02 18:12:00,86.8,2.9,30.17,NNE,16,5.0,0.0,4,0.00,,,0.00,481,WeatherHawk,2013-07-02 23:12:00,
2013-07-02 18:18:00,87.9,3.7,30.16,NW,316,1.0,0.0,4,0.00,,,0.00,472,WeatherHawk,2013-07-02 23:18:00,
2013-07-02 18:23:00,86.2,14.9,30.17,NNE,16,14.0,0.0,7,0.00,,,0.00,440,WeatherHawk,2013-07-02 23:23:00,
2013-07-02 18:29:00,87.2,15.6,30.18,NW,307,5.0,0.0,7,0.00,,,0.00,412,WeatherHawk,2013-07-02 23:29:00,
2013-07-02 18:34:00,86.4,11.6,30.16,North,3,10.0,0.0,6,0.00,,,0.00,376,WeatherHawk,2013-07-02 23:34:00,
2013-07-02 18:39:00,86.8,15.4,30.16,North,2,4.0,0.0,7,0.00,,,0.00,354,WeatherHawk,2013-07-02 23:39:00,
2013-07-02 18:45:00,87.2,12.1,30.16,NNE,12,5.0,0.0,6,0.00,,,0.00,347,WeatherHawk,2013-07-02 23:45:00,
2013-07-02 18:50:00,88.2,16.4,30.17,West,270,4.0,0.0,7,0.00,,,0.00,330,WeatherHawk,2013-07-02 23:50:00,
2013-07-02 18:54:00,86.8,11.8,30.17,NNE,15,6.0,0.0,6,0.00,,,0.00,315,WeatherHawk,2013-07-02 23:54:00,
2013-07-02 18:59:00,85.6,11.0,30.17,NNE,32,6.0,0.0,6,0.00,,,0.00,101,WeatherHawk,2013-07-02 23:59:00,
2013-07-02 19:05:00,85.3,6.7,30.17,NNE,26,7.0,0.0,5,0.00,,,0.00,83,WeatherHawk,2013-07-03 00:05:00,
2013-07-02 19:06:00,85.6,6.9,30.18,NE,47,3.0,0.0,5,0.00,,,0.00,89,WeatherHawk,2013-07-03 00:06:00,
2013-07-02 19:12:00,86.0,7.2,30.19,NNE,28,5.0,0.0,5,0.00,,,0.00,249,WeatherHawk,2013-07-03 00:12:00,
2013-07-02 19:17:00,86.6,7.7,30.18,NNW,339,2.0,0.0,5,0.00,,,0.00,82,WeatherHawk,2013-07-03 00:17:00,
2013-07-02 19:22:00,85.3,6.8,30.18,NNE,19,4.0,0.0,5,0.00,,,0.00,113,WeatherHawk,2013-07-03 00:22:00,
2013-07-02 19:24:00,85.1,6.6,30.18,NNE,20,5.0,0.0,5,0.00,,,0.00,69,WeatherHawk,2013-07-03 00:24:00,
2013-07-02 19:29:00,85.0,1.7,30.19,North,5,5.0,0.0,4,0.00,,,0.00,72,WeatherHawk,2013-07-03 00:29:00,
2013-07-02 19:35:00,85.1,14.1,30.19,NNW,331,5.0,-999.0,7,0.00,,,0.00,75,WeatherHawk,2013-07-03 00:35:00,
2013-07-02 19:40:00,85.0,14.1,30.19,NNE,15,5.0,0.0,7,0.00,,,0.00,150,WeatherHawk,2013-07-03 00:40:00,
2013-07-02 19:44:00,85.3,10.8,30.20,WNW,300,2.0,0.0,6,0.00,,,0.00,146,WeatherHawk,2013-07-03 00:44:00,
2013-07-02 19:50:00,85.1,10.6,30.18,NNE,18,6.0,0.0,6,0.00,,,0.00,134,WeatherHawk,2013-07-03 00:50:00,
2013-07-02 19:55:00,84.9,10.5,30.17,NNE,17,5.0,-999.0,6,0.00,,,0.00,116,WeatherHawk,2013-07-03 00:55:00,
2013-07-02 20:00:00,84.8,10.4,30.19,North,9,3.0,-999.0,6,0.00,,,0.00,55,WeatherHawk,2013-07-03 01:00:00,
2013-07-02 20:02:00,84.9,14.0,30.19,NNE,28,9.0,0.0,7,0.00,,,0.00,91,WeatherHawk,2013-07-03 01:02:00,
2013-07-02 20:05:00,84.8,10.4,30.19,ENE,62,4.0,0.0,6,0.00,,,0.00,88,WeatherHawk,2013-07-03 01:05:00,
2013-07-02 20:10:00,84.8,13.9,30.18,NE,54,5.0,0.0,7,0.00,,,0.00,77,WeatherHawk,2013-07-03 01:10:00,
2013-07-02 20:15:00,84.6,10.3,30.19,ENE,63,6.0,0.0,6,0.00,,,0.00,65,WeatherHawk,2013-07-03 01:15:00,
2013-07-02 20:20:00,84.5,10.2,30.19,NNE,12,5.0,0.0,6,0.00,,,0.00,46,WeatherHawk,2013-07-03 01:20:00,
2013-07-02 20:25:00,84.5,10.2,30.19,East,85,5.0,0.0,6,0.00,,,0.00,31,WeatherHawk,2013-07-03 01:25:00,
2013-07-02 20:26:00,84.0,9.9,30.18,NNE,25,0.0,0.0,6,0.00,,,0.00,28,WeatherHawk,2013-07-03 01:26:00,
2013-07-02 20:31:00,84.0,5.8,30.18,NE,56,2.0,0.0,5,0.00,,,0.00,14,WeatherHawk,2013-07-03 01:31:00,
2013-07-02 20:37:00,83.7,5.6,30.19,NE,47,3.0,0.0,5,0.00,,,0.00,6,WeatherHawk,2013-07-03 01:37:00,
2013-07-02 20:42:00,83.6,5.6,30.19,NNE,16,3.0,0.0,5,0.00,,,0.00,4,WeatherHawk,2013-07-03 01:42:00,
2013-07-02 20:47:00,83.4,5.5,30.19,North,349,1.0,0.0,5,0.00,,,0.00,2,WeatherHawk,2013-07-03 01:47:00,
2013-07-02 20:50:00,83.5,5.5,30.19,NNE,13,2.0,-999.0,5,0.00,,,0.00,2,WeatherHawk,2013-07-03 01:50:00,
2013-07-02 20:55:00,83.0,12.6,30.20,NNE,21,1.0,-999.0,7,0.00,,,0.00,1,WeatherHawk,2013-07-03 01:55:00,
2013-07-02 21:01:00,82.6,8.9,30.20,NE,48,1.0,0.0,6,0.00,,,0.00,0,WeatherHawk,2013-07-03 02:01:00,
2013-07-02 21:07:00,82.6,15.3,30.20,NE,44,1.0,0.0,8,0.00,,,0.00,1,WeatherHawk,2013-07-03 02:07:00,
2013-07-02 21:12:00,81.4,8.0,30.21,NE,51,0.0,0.0,6,0.00,,,0.00,0,WeatherHawk,2013-07-03 02:12:00,
2013-07-02 21:17:00,81.8,8.3,30.20,NE,42,0.0,0.0,6,0.00,,,0.00,0,WeatherHawk,2013-07-03 02:17:00,
2013-07-02 21:22:00,82.0,11.9,30.20,NE,39,0.0,0.0,7,0.00,,,0.00,0,WeatherHawk,2013-07-03 02:22:00,
2013-07-02 21:27:00,81.7,11.7,30.21,NE,39,0.0,0.0,7,0.00,,,0.00,0,WeatherHawk,2013-07-03 02:27:00,
2013-07-02 21:33:00,80.5,16.5,30.20,NE,44,0.0,0.0,9,0.00,,,0.00,1,WeatherHawk,2013-07-03 02:33:00,
2013-07-02 21:35:00,80.8,14.0,30.20,NE,49,0.0,-999.0,8,0.00,,,0.00,1,WeatherHawk,2013-07-03 02:35:00,
2013-07-02 21:40:00,81.2,11.3,30.20,NE,46,0.0,0.0,7,0.00,,,0.00,0,WeatherHawk,2013-07-03 02:40:00,
2013-07-02 21:45:00,81.4,11.4,30.21,NE,54,0.0,-999.0,7,0.00,,,0.00,0,WeatherHawk,2013-07-03 02:45:00,
2013-07-02 21:50:00,80.4,13.7,30.21,NE,54,0.0,0.0,8,0.00,,,0.00,0,WeatherHawk,2013-07-03 02:50:00,
2013-07-02 21:51:00,80.4,16.4,30.21,NE,54,0.0,0.0,9,0.00,,,0.00,0,WeatherHawk,2013-07-03 02:51:00,
2013-07-02 21:56:00,81.3,17.1,30.21,NE,46,0.0,0.0,9,0.00,,,0.00,1,WeatherHawk,2013-07-03 02:56:00,
2013-07-02 22:02:00,80.1,18.6,30.21,NE,39,0.0,0.0,10,0.00,,,0.00,0,WeatherHawk,2013-07-03 03:02:00,
2013-07-02 22:04:00,79.9,16.0,30.21,NE,46,0.0,0.0,9,0.00,,,0.00,0,WeatherHawk,2013-07-03 03:04:00,
2013-07-02 22:09:00,80.3,16.3,30.21,ENE,62,0.0,0.0,9,0.00,,,0.00,0,WeatherHawk,2013-07-03 03:09:00,
2013-07-02 22:15:00,80.0,18.5,30.21,NE,39,0.0,0.0,10,0.00,,,0.00,1,WeatherHawk,2013-07-03 03:15:00,
2013-07-02 22:20:00,80.0,22.8,30.21,NE,39,0.0,0.0,12,0.00,,,0.00,0,WeatherHawk,2013-07-03 03:20:00,
2013-07-02 22:21:00,78.7,23.7,30.22,NE,39,0.0,0.0,13,0.00,,,0.00,0,WeatherHawk,2013-07-03 03:21:00,
2013-07-02 22:27:00,79.4,22.4,30.22,NE,40,0.0,0.0,12,0.00,,,0.00,0,WeatherHawk,2013-07-03 03:27:00,
2013-07-02 22:32:00,79.4,24.2,30.22,NE,40,0.0,0.0,13,0.00,,,0.00,1,WeatherHawk,2013-07-03 03:32:00,
2013-07-02 22:37:00,79.5,24.3,30.22,NE,40,0.0,0.0,13,0.00,,,0.00,0,WeatherHawk,2013-07-03 03:37:00,
2013-07-02 22:39:00,80.1,20.8,30.22,NE,40,0.0,0.0,11,0.00,,,0.00,0,WeatherHawk,2013-07-03 03:39:00,
2013-07-02 22:44:00,79.7,22.6,30.22,NNE,20,0.0,0.0,12,0.00,,,0.00,0,WeatherHawk,2013-07-03 03:44:00,
2013-07-02 22:49:00,79.2,22.2,30.22,NNE,20,0.0,0.0,12,0.00,,,0.00,0,WeatherHawk,2013-07-03 03:49:00,
2013-07-02 22:51:00,78.9,23.9,30.22,NNE,20,0.0,0.0,13,0.00,,,0.00,1,WeatherHawk,2013-07-03 03:51:00,
2013-07-02 22:56:00,77.0,24.1,30.23,NNE,20,0.0,0.0,14,0.00,,,0.00,1,WeatherHawk,2013-07-03 03:56:00,
2013-07-02 23:00:00,77.2,27.5,30.22,NNE,20,0.0,0.0,16,0.00,,,0.00,1,WeatherHawk,2013-07-03 04:00:00,
2013-07-02 23:02:00,77.6,26.3,30.22,NNE,20,0.0,0.0,15,0.00,,,0.00,0,WeatherHawk,2013-07-03 04:02:00,
2013-07-02 23:03:00,74.6,25.5,30.23,NNE,20,0.0,0.0,16,0.00,,,0.00,1,WeatherHawk,2013-07-03 04:03:00,
2013-07-02 23:05:00,75.6,26.2,30.22,NNE,20,0.0,0.0,16,0.00,,,0.00,0,WeatherHawk,2013-07-03 04:05:00,
2013-07-02 23:06:00,77.9,28.1,30.23,NNE,20,0.0,0.0,16,0.00,,,0.00,0,WeatherHawk,2013-07-03 04:06:00,
2013-07-02 23:10:00,77.4,29.2,30.22,NNE,20,0.0,-999.0,17,0.00,,,0.00,0,WeatherHawk,2013-07-03 04:10:00,
2013-07-02 23:15:00,77.2,29.0,30.22,NNE,20,0.0,0.0,17,0.00,,,0.00,0,WeatherHawk,2013-07-03 04:15:00,
2013-07-02 23:20:00,78.4,30.0,30.23,NNE,20,0.0,-999.0,17,0.00,,,0.00,1,WeatherHawk,2013-07-03 04:20:00,
2013-07-02 23:25:00,77.9,30.9,30.23,NNE,20,0.0,-999.0,18,0.00,,,0.00,0,WeatherHawk,2013-07-03 04:25:00,
2013-07-02 23:30:00,75.6,31.7,30.23,NNE,20,0.0,-999.0,20,0.00,,,0.00,1,WeatherHawk,2013-07-03 04:30:00,
2013-07-02 23:32:00,74.3,30.6,30.23,NNE,20,0.0,0.0,20,0.00,,,0.00,0,WeatherHawk,2013-07-03 04:32:00,
2013-07-02 23:34:00,77.9,33.5,30.23,NNE,20,0.0,0.0,20,0.00,,,0.00,0,WeatherHawk,2013-07-03 04:34:00,
2013-07-02 23:39:00,76.3,29.6,30.23,NNE,20,0.0,0.0,18,0.00,,,0.00,0,WeatherHawk,2013-07-03 04:39:00,
2013-07-02 23:44:00,76.6,31.3,30.22,NNE,20,0.0,0.0,19,0.00,,,0.00,1,WeatherHawk,2013-07-03 04:44:00,
2013-07-02 23:46:00,75.0,32.4,30.22,NNE,20,0.0,0.0,21,0.00,,,0.00,0,WeatherHawk,2013-07-03 04:46:00,
2013-07-02 23:47:00,76.6,31.3,30.23,NNE,20,0.0,0.0,19,0.00,,,0.00,0,WeatherHawk,2013-07-03 04:47:00,
2013-07-02 23:53:00,77.0,32.8,30.22,NNE,20,0.0,0.0,20,0.00,,,0.00,0,WeatherHawk,2013-07-03 04:53:00,
2013-07-02 23:58:00,76.1,32.1,30.23,NNE,20,0.0,0.0,20,0.00,,,0.00,1,WeatherHawk,2013-07-03 04:58:00,